Total_Precipitation_Accumulation
1.45 1.50 1.52 1.38 1.29 1.24 1.28 1.48 1.76 1.54 0.97 0.74 0.75 0.82 0.90 1.01 1.21 1.10 1.03 1.11 1.18 1.26 1.36 1.41 1.48 1.62 1.91 2.50 3.44 4.75 5.36 4.67 3.74 3.41 3.41 3.67 4.03 4.48
1.32 1.43 1.49 1.42 1.34 1.28 1.33 1.36 1.47 1.64 1.34 0.80 0.73 0.78 0.90 0.96 1.09 0.99 1.01 1.18 1.18 1.21 1.28 1.33 1.40 1.47 1.63 1.90 2.41 3.23 4.41 5.06 4.67 4.01 3.66 3.78 3.99 4.25
1.25 1.30 1.33 1.35 1.38 1.31 1.31 1.33 1.30 1.36 1.36 0.86 0.70 0.74 0.92 1.00 1.00 0.95 0.98 1.03 1.06 1.18 1.21 1.24 1.31 1.40 1.59 1.78 2.04 2.47 3.13 4.08 4.74 4.61 4.20 3.99 3.92 3.95
1.21 1.20 1.20 1.24 1.32 1.27 1.23 1.20 1.16 1.11 1.16 0.99 0.74 0.73 0.80 0.88 1.00 1.09 1.08 1.05 1.00 1.10 1.13 1.22 1.35 1.40 1.49 1.68 1.91 2.20 2.55 3.06 3.74 4.27 4.34 4.11 3.88 3.87
1.18 1.18 1.15 1.21 1.28 1.24 1.23 1.17 1.07 1.00 1.00 1.01 0.83 0.74 0.77 0.81 1.00 1.17 1.19 1.20 1.13 1.14 1.16 1.22 1.32 1.41 1.47 1.58 1.81 2.02 2.19 2.37 2.75 3.47 4.03 3.98 3.84 3.75
1.09 1.07 1.10 1.22 1.26 1.29 1.33 1.23 1.16 1.15 1.15 1.17 1.03 0.88 0.89 0.91 1.11 1.35 1.45 1.42 1.37 1.22 1.24 1.27 1.37 1.49 1.49 1.48 1.54 1.65 1.79 2.07 2.39 2.80 3.40 3.78 3.67 3.62
1.03 1.02 1.08 1.23 1.30 1.48 1.62 1.50 1.46 1.55 1.50 1.48 1.36 1.24 1.16 1.21 1.30 1.35 1.52 1.54 1.54 1.39 1.28 1.20 1.23 1.25 1.32 1.40 1.46 1.52 1.62 1.78 2.05 2.37 2.77 3.23 3.52 3.59
1.07 1.02 1.03 1.16 1.20 1.33 1.53 1.63 1.69 1.80 1.86 1.82 1.72 1.57 1.32 1.23 1.28 1.43 1.52 1.71 1.78 1.48 1.40 1.34 1.28 1.36 1.31 1.30 1.50 1.52 1.56 1.69 1.87 2.11 2.40 2.70 3.07 3.47
1.06 1.05 1.05 1.10 1.17 1.15 1.27 1.34 1.38 1.54 1.76 1.87 1.91 1.52 1.30 1.25 1.47 1.68 1.64 1.73 1.71 1.61 1.73 1.68 1.39 1.41 1.34 1.44 1.63 1.53 1.51 1.58 1.70 1.86 2.08 2.32 2.59 2.94
1.04 1.02 1.02 1.05 1.15 1.35 1.32 1.27 1.18 1.19 1.40 1.60 1.85 1.67 1.48 1.52 1.85 2.17 2.26 2.13 1.75 1.56 1.74 1.94 1.50 1.39 1.42 1.52 1.67 1.57 1.46 1.46 1.54 1.69 1.85 2.02 2.23 2.50
1.01 0.99 1.01 1.01 1.26 1.53 1.45 1.30 1.13 1.03 1.14 1.46 1.76 1.90 1.94 2.05 2.28 2.61 2.78 2.60 2.15 1.64 1.63 1.89 1.70 1.51 1.64 1.81 1.85 1.74 1.49 1.43 1.47 1.58 1.66 1.72 1.92 2.22
1.06 1.02 1.14 1.23 1.41 1.55 1.41 1.36 1.44 1.22 1.08 1.12 1.20 1.31 1.40 1.56 1.94 2.25 2.56 2.65 2.29 2.07 1.73 1.83 1.95 1.95 2.19 2.05 1.90 1.70 1.50 1.44 1.44 1.49 1.53 1.55 1.68 1.72
1.10 1.07 1.06 1.30 1.40 1.48 1.50 1.43 1.66 1.55 1.29 1.29 1.24 1.18 1.17 1.29 1.49 1.79 2.21 2.54 2.56 2.26 1.86 2.14 2.43 2.24 2.30 2.14 2.01 1.92 1.59 1.37 1.32 1.41 1.51 1.56 1.61 1.59
1.06 0.96 1.01 1.25 1.34 1.45 1.43 1.50 1.61 1.55 1.35 1.29 1.20 1.14 1.16 1.22 1.31 1.47 1.80 2.07 2.18 2.07 1.78 2.13 2.72 2.48 2.34 2.06 1.98 2.07 1.84 1.54 1.34 1.31 1.35 1.62 1.63 1.57
1.06 1.15 1.22 1.32 1.33 1.27 1.32 1.41 1.39 1.31 1.39 1.38 1.22 1.11 1.14 1.26 1.33 1.37 1.51 1.78 1.94 1.91 1.85 1.94 2.35 2.46 2.47 2.26 1.91 1.92 2.00 1.86 1.55 1.43 1.39 1.42 1.38 1.33
1.24 1.28 1.36 1.34 1.24 1.15 1.18 1.20 1.14 1.22 1.37 1.37 1.23 1.09 1.07 1.18 1.32 1.42 1.52 1.66 1.87 1.90 1.87 1.95 2.21 2.60 2.59 2.11 1.93 1.88 1.79 1.95 1.80 1.60 1.47 1.40 1.28 1.13
1.41 1.48 1.40 1.32 1.27 1.16 1.05 1.00 1.03 1.18 1.30 1.21 1.18 1.15 1.11 1.13 1.20 1.31 1.53 1.68 1.82 1.85 1.91 2.05 2.22 2.45 2.55 2.45 2.29 1.93 1.68 1.61 1.67 1.64 1.58 1.59 1.50 1.27
1.59 1.51 1.30 1.15 1.11 1.07 1.04 1.02 0.97 1.00 1.06 1.13 1.17 1.16 1.15 1.17 1.19 1.20 1.36 1.60 1.75 1.77 1.83 1.96 2.14 2.39 2.57 2.67 2.50 2.10 1.75 1.59 1.65 1.71 1.66 1.73 1.77 1.53
1.47 1.26 1.08 1.02 0.99 0.97 0.96 0.95 0.91 0.86 0.90 0.99 1.04 1.08 1.13 1.16 1.19 1.20 1.25 1.40 1.58 1.70 1.80 1.89 2.06 2.30 2.48 2.58 2.65 2.32 2.00 1.73 1.70 1.89 1.90 1.80 1.79 1.65
1.22 1.12 1.04 0.96 0.94 0.98 0.99 0.97 0.93 0.89 0.91 0.93 0.96 0.97 1.05 1.15 1.18 1.16 1.19 1.31 1.46 1.59 1.69 1.78 1.99 2.27 2.50 2.43 2.49 2.48 2.37 2.04 1.84 1.99 2.06 1.94 1.83 1.79
1.09 1.07 1.03 1.01 0.99 1.00 1.02 1.02 1.00 0.97 0.92 0.93 0.93 0.92 0.94 1.04 1.08 1.05 1.08 1.21 1.37 1.49 1.57 1.58 1.72 2.00 2.24 2.27 2.20 2.17 2.35 2.39 2.07 2.04 2.11 2.14 2.09 2.02
1.00 1.04 1.04 1.04 1.04 1.05 1.05 1.06 1.04 0.98 0.93 0.92 0.89 0.87 0.89 0.94 0.98 1.00 1.06 1.13 1.18 1.30 1.42 1.47 1.57 1.83 2.16 2.36 2.27 2.10 2.17 2.34 2.38 2.22 2.15 2.21 2.39 2.45
1.10 1.08 1.06 1.06 1.06 1.07 1.08 1.05 1.01 0.94 0.88 0.87 0.86 0.85 0.87 0.91 0.91 0.94 1.00 1.06 1.12 1.18 1.27 1.42 1.54 1.72 1.98 2.19 2.29 2.18 2.06 2.10 2.22 2.28 2.42 2.26 1.90 1.73